Caldwell, NJ

2:13 PM EDT on May 26, 2017 (GMT -0400)
Essex County

Weather History for KCDW - August, 2012

Change the Weather History Date:

Tuesday, August 21, 2012

  Actual Average Record
Temperature  
Mean Temperature 72 °F -  
Max Temperature 82 °F 80 °F 97 °F (1983)
Min Temperature 62 °F 57 °F 44 °F (1949)
Cooling Degree Days 7    
Growing Degree Days 22 (Base 50)    
Moisture  
Dew Point 57 °F    
Average Humidity 62    
Maximum Humidity 90    
Minimum Humidity 36    
Precipitation  
Precipitation 0.00 in - - ()
Sea Level Pressure  
Sea Level Pressure 30.04 in    
Wind  
Wind Speed 2 mph (NNW)    
Max Wind Speed 7 mph    
Max Gust Speed -    
Visibility 10 miles    
Events      
Averages and records for this station are not official NWS values.
T = Trace of Precipitation, MM = Missing Value Source: NWS Daily Summary

Daily Weather History Graph

Daily Weather History Graph

Search for Another Location

Airport or City:

Trip Planner

Search our weather history database for the weather conditions in past years. The results will help you decide how hot, cold, wet, or windy it might be!

Date:

Astronomy

Aug. 21, 2012 Rise Set
Actual Time 6:13 AM EDT 7:45 PM EDT
Civil Twilight 5:44 AM EDT 8:14 PM EDT
Nautical Twilight 5:09 AM EDT 8:49 PM EDT
Astronomical Twilight 4:32 AM EDT 9:26 PM EDT
Moon 10:43 AM EDT (8/21) 9:41 PM EDT (8/21)
Length of Visible Light 14h 30m
Length of Day
13h 32m
Waxing Crescent, 19% of the Moon is Illuminated
Aug 21
Waxing Crescent
Aug 24
First Quarter
Aug 31
Full
Sep 8
Last Quarter
Sep 15
New

Hourly Weather History & Observations

Time (EDT) Temp. Heat Index Dew Point Humidity Pressure Visibility Wind Dir Wind Speed Gust Speed Precip Events Conditions
12:53 AM 68.0 °F - 59.0 °F 73% 29.96 in 10.0 mi NW 3.5 mph - N/A   Overcast
2:53 AM 66.9 °F - 60.1 °F 79% 29.97 in 10.0 mi Calm Calm - N/A   Overcast
3:53 AM 66.0 °F - 60.1 °F 81% 29.98 in 10.0 mi Calm Calm - N/A   Scattered Clouds
4:53 AM 64.0 °F - 60.1 °F 87% 29.99 in 10.0 mi Calm Calm - N/A   Clear
5:53 AM 63.0 °F - 59.0 °F 87% 30.00 in 10.0 mi Calm Calm - N/A   Clear
6:53 AM 62.1 °F - 59.0 °F 90% 30.02 in 8.0 mi Calm Calm - N/A   Clear
7:53 AM 64.9 °F - 59.0 °F 81% 30.03 in 10.0 mi Calm Calm - N/A   Clear
8:53 AM 68.0 °F - 59.0 °F 73% 30.05 in 10.0 mi Calm Calm - N/A   Clear
9:53 AM 71.1 °F - 60.1 °F 68% 30.05 in 10.0 mi Calm Calm - N/A   Clear
10:53 AM 73.9 °F - 57.9 °F 57% 30.05 in 10.0 mi NNW 6.9 mph - N/A   Clear
11:53 AM 77.0 °F - 55.0 °F 47% 30.06 in 10.0 mi ENE 6.9 mph - N/A   Clear
12:53 PM 78.1 °F - 54.0 °F 43% 30.06 in 10.0 mi Calm Calm - N/A   Partly Cloudy
1:53 PM 80.1 °F 79.9 °F 53.1 °F 39% 30.06 in 10.0 mi Variable 4.6 mph - N/A   Clear
2:53 PM 80.1 °F 80.0 °F 54.0 °F 40% 30.05 in 10.0 mi Calm Calm - N/A   Partly Cloudy
3:53 PM 82.0 °F 81.2 °F 53.1 °F 37% 30.04 in 10.0 mi WNW 5.8 mph - N/A   Clear
4:53 PM 81.0 °F - 52.0 °F 36% 30.05 in 10.0 mi Calm Calm - N/A   Clear
5:53 PM 82.0 °F 81.3 °F 54.0 °F 38% 30.05 in 10.0 mi Variable 3.5 mph - N/A   Clear
6:53 PM 78.1 °F - 55.0 °F 45% 30.05 in 10.0 mi Calm Calm - N/A   Clear
7:53 PM 75.0 °F - 55.0 °F 50% 30.06 in 10.0 mi Calm Calm - N/A   Clear
8:53 PM 72.0 °F - 57.9 °F 61% 30.09 in 10.0 mi Calm Calm - N/A   Scattered Clouds
9:53 PM 71.1 °F - 60.1 °F 68% 30.11 in 10.0 mi Calm Calm - N/A   Clear
10:53 PM 70.0 °F - 61.0 °F 73% 30.12 in 10.0 mi Calm Calm - N/A   Clear
11:53 PM 68.0 °F - 61.0 °F 78% 30.12 in 10.0 mi Calm Calm - N/A   Clear